Accueil
METAR-TAF:

METAR-TAF

Aéroports :

Lifuka, Tonga

latitude: 19-46-36S, longitude: 174-20-28W, altitude: 9 m

Observation

Le bulletin a été fait il y a 52 minutes, à 21:00 UTC
Vent 8 kt de est/sud-est
Température 28°C
Humidité 84%
Pression 1009 hPa
Visibilité 10 km ou plus
Nuages épars à une hauteur de 1700 ft

METAR: NFTL 222100Z 11008KT 9999 SCT017 28/25 Q1009

Heure: 10:52 (21:52 UTC)


TAF: absent

Observations et prévisions météorologiques de plus de 4000 aéroports (messages METAR et TAF).

Les stations disponibles sont représentées par des disques jaunes et rouges sur la carte.

Passer la souris dessus pour voir le nom de la station.

Cliquer dessus pour voir les observations et prévisions météorologiques.

Pour changer de carte: cliquez sur les boutons verts avec une croix noire pour zoomer, sur le bouton vert avec un tiret pour effectuer un zoom arrière, ou sur les flèches vertes pour les cartes adjacentes.


METAR-TAF: